Weather in Goreloye

Russia / Tambov Oblast     52°55′14″N   41°29′52″E
temp.,
°C
wind,
m/s
gust,
m/s
humid.,
%
clouds,
%
prec.,
mm/h
press.,
hPa
HPBL,
m
3 march, wed
wed300:00−2nw499491 0.2 1008277
03:00−4nw4119684 0.2 1009321
06:00−2nw41195100 0.3 1010659
09:00−3nnw6118793 0.3 1013750
12:00−3nw6108538 0.0 1014686
15:00−3nw6108462 0.0 1015864
18:00−4w3109099 0.0 1015374
21:00−5w5119464 0.1 1015298
4 march, thu
thu400:00−2w5119098 0.1 1013703
03:00−2wsw6129299 0.2 1011805
06:00−3wsw71491100 0.0 1008624
09:000wsw81589100 0.2 1007781
12:00+1wsw8168596 0.0 1005838
15:00+1wsw8148593 0.0 1005968
18:00+1wsw61388100 0.0 1003813
21:00+1wsw51291100 0.0 1002696
5 march, fri
fri500:000sw4998100 0.6 1000384
03:000w3798100 1.9 1000292
06:000wnw4798100 1.5 1001436
09:00−3n4792100 1.9 1004447
12:00−2nnw358596 0.1 1007532
15:00−2nw358377 0.1 1010519
18:00−6nw229341 0.0 101126
21:00−7nw119270 0.0 101321
6 march, sat
sat600:00−7nnw1190100 0.0 101321
03:00−8nnw2292100 0.0 101423
06:00−9nnw2392100 0.0 101458
09:00−9nnw358661 0.0 1015224
12:00−6nw35830 0.0 1015382
15:00−6nw35810 0.0 1015524
18:00−9wnw23930 0.0 101655
21:00−10nw259512 0.0 1018123
7 march, sun
sun700:00−12nw249291 0.0 1018127
03:00−14w229247 0.0 101847
06:00−13sw37890 0.0 1017156
09:00−9sw7148020 0.0 1014577
12:00−5sw91671100 0.0 1011988
15:00−3sw101870100 0.0 10071268
18:00−3sw112091100 0.4 10031318
21:00−2wsw102088100 1.3 10001296